Powrót do katalogu

STARLINK-3893

AktywnyŁącznośćVLEO
NORAD 52579·PAYLOAD·🇺🇸 United States

Wystrzelony May 13, 2022 z Vandenberg Space Force Base

Loading…

Następne Przeloty (najbliższe 24 godziny)

TLE

ŚwieżeSource: CelesTrak SupGP

Epoka: Sep 15, 2026, 02:41 UTC

1 52579C 22051AV  26258.11229167  .01443700  00000+0  69534-3 0  2586
2 52579  53.2104 318.6900 0004169   8.8922  70.5581 16.20511773    11

Śledź STARLINK-3893 w czasie rzeczywistym z AllMySat

Download on the App Store